This is the latest recevied weather packets stored in our database for station/object K5WNG. If no packets are shown the sender has not sent any weather packets the latest 10 day(s).
| Time | Temp. | Humidity | Pressure | Rain* | Wind** | Luminosity | Snow |
|---|---|---|---|---|---|---|---|
| 1778159421 | 13.89° C | 91% | 1017.5 hPa | 0 mm | - | 84 W/m² | - |
| 1778159125 | 13.89° C | 92% | 1017.5 hPa | 0 mm | - | 61 W/m² | - |
| 1778158830 | 13.89° C | 92% | 1017.6 hPa | 0 mm | - | 37 W/m² | - |
| 1778158526 | 13.89° C | 92% | 1017.6 hPa | 0 mm | - | 28 W/m² | - |
| 1778158229 | 13.89° C | 92% | 1017.6 hPa | 0 mm | - | 18 W/m² | - |
| 1778157928 | 13.89° C | 92% | 1017.5 hPa | 0 mm | - | 15 W/m² | - |
| 1778157626 | 13.89° C | 92% | 1017.5 hPa | 0 mm | - | 16 W/m² | - |
| 1778157317 | 13.89° C | 91% | 1017.4 hPa | 0 mm | - | 16 W/m² | - |
| 1778157026 | 13.89° C | 91% | 1017.5 hPa | 0 mm | - | 10 W/m² | - |
| 1778156721 | 13.89° C | 91% | 1017.6 hPa | 0 mm | - | 8 W/m² | - |
| 1778156426 | 13.89° C | 91% | 1017.3 hPa | 0 mm | - | 8 W/m² | - |
| 1778156117 | 13.89° C | 91% | 1017.1 hPa | 0 mm | - | 6 W/m² | - |
| 1778155829 | 13.89° C | 91% | 1017 hPa | 0 mm | - | 6 W/m² | - |
| 1778155529 | 13.89° C | 91% | 1016.9 hPa | 0 mm | - | 5 W/m² | - |
| 1778155226 | 13.89° C | 91% | 1016.8 hPa | 0 mm | - | 4 W/m² | - |
| 1778154926 | 13.89° C | 91% | 1016.8 hPa | 0 mm | - | 3 W/m² | - |
| 1778154629 | 13.89° C | 90% | 1016.8 hPa | 0 mm | - | 2 W/m² | - |
| 1778154326 | 13.89° C | 90% | 1016.6 hPa | 0 mm | - | 1 W/m² | - |
| 1778154027 | 13.89° C | 90% | 1016.7 hPa | 0 mm | - | 1 W/m² | - |
| 1778153726 | 13.89° C | 90% | 1016.5 hPa | 0 mm | - | 0 W/m² | - |
| 1778153431 | 13.89° C | 90% | 1016.4 hPa | 0 mm | - | 0 W/m² | - |
| 1778153130 | 13.89° C | 90% | 1016.4 hPa | 0 mm | - | 0 W/m² | - |
| 1778152827 | 13.89° C | 90% | 1016.4 hPa | 0 mm | - | 0 W/m² | - |
| 1778152527 | 13.89° C | 90% | 1016.5 hPa | 0 mm | - | 0 W/m² | - |
| 1778152227 | 13.89° C | 90% | 1016.6 hPa | 0 mm | - | 0 W/m² | - |
* Rain latest hour (hover to see other rain measurements)
** Current wind speed in m/s (hover to see current wind gust speed)